Weather observations for the past three days for
Minden-Tahoe Airport
Imperial (Metric)
Date Time (pdt) Wind (mph) Vis. (mi.) Weather Sky Cond. Temperature (ºF) Relative Humidity Wind Chill (°F) Heat Index (°F) Pressure Precipitation (in)
Air Dwpt 6 hour altimeter (in) sea level (mb) 1 hr 3 hr 6 hr
Max. Min.
25 10:55 W 10 G 17 9.00 Fair CLR 87.8 48.2 25% 85 30.26 0.0
25 10:35 SW 10 G 17 10.00 Fair CLR 87.8 50 27% 85 30.26 0.0
25 10:15 Vrbl 5 10.00 Fair CLR 86 50 29% 84 30.26 0.0
25 09:55 SW 6 8.00 A Few Clouds FEW080 84.2 50 31% 82 30.27 0.0
25 09:35 S 5 10.00 Fair CLR 84.2 50 31% 82 30.27 0.0
25 09:15 Calm 10.00 Fair CLR 82.4 51.8 35% 81 30.27 0.0
25 08:55 Vrbl 3 10.00 Fair CLR 80.6 51.8 37% 80 30.27 0.0
25 08:35 Calm 10.00 Fair CLR 78.8 51.8 39% 79 30.27 0.0
25 08:15 Calm 10.00 Fair CLR 75.2 53.6 47% 78 30.27 0.0
25 07:55 Calm 10.00 Fair CLR 71.6 53.6 53% 30.28 0.0
25 07:35 Vrbl 3 9.00 Fair CLR 66.2 53.6 64% 30.28 0.0
25 07:15 Calm 10.00 Fair CLR 64.4 53.6 68% 30.28 0.0
25 06:55 Calm 4.00 Fair with Haze CLR 60.8 53.6 77% 30.28 0.0
25 06:35 Calm 4.00 Fair with Haze CLR 57.2 51.8 82% 30.28 0.0
25 06:15 Vrbl 5 4.00 Fair with Haze CLR 57.2 51.8 82% 30.29 0.0
25 05:55 Calm 6.00 Fair with Haze CLR 55.4 51.8 88% 30.28 0.0
25 05:35 Calm 10.00 Partly Cloudy SCT060 55.4 51.8 88% 30.28 0.0
25 05:15 Calm 7.00 Mostly Cloudy BKN055 BKN065 55.4 51.8 88% 30.28 0.0
25 04:55 Calm 6.00 Mostly Cloudy with Haze FEW047 BKN055 BKN065 57.2 51.8 82% 30.28 0.0
25 04:35 Calm 6.00 Partly Cloudy with Haze FEW048 SCT060 57.2 50 77% 30.28 0.0
25 04:15 Calm 9.00 Partly Cloudy SCT055 SCT070 57.2 50 77% 30.28 0.0
25 00:45 SE 7 10.00 A Few Clouds FEW055 62.6 53.6 73% 30.29 0.0
25 00:35 SE 7 10.00 Partly Cloudy SCT050 62.6 53.6 73% 30.29 0.0
25 00:15 E 5 6.00 Partly Cloudy with Haze SCT050 SCT060 62.6 53.6 73% 30.29 0.0
24 23:55 Calm 10.00 Partly Cloudy FEW050 SCT055 66.2 53.6 64% 30.29 0.0
24 23:35 E 8 10.00 Partly Cloudy SCT050 SCT060 66.2 55.4 68% 30.29 0.0
24 23:15 E 7 10.00 Partly Cloudy FEW050 SCT060 66.2 55.4 68% 30.29 0.0
24 22:55 E 8 10.00 Partly Cloudy FEW055 SCT065 64.4 55.4 73% 30.28 0.0
24 22:35 SE 7 10.00 A Few Clouds FEW060 64.4 55.4 73% 30.28 0.0
24 22:15 SE 5 9.00 A Few Clouds FEW060 66.2 55.4 68% 30.29 0.0
24 21:55 S 3 8.00 Fair CLR 68 53.6 60% 30.29 0.0
24 21:35 SE 5 3.00 Light Rain Haze CLR 68 55.4 64% 30.28 0.0
24 21:15 SE 5 10.00 Fair CLR 69.8 53.6 57% 30.28 0.0
24 20:55 Calm 10.00 Fair CLR 71.6 53.6 53% 30.27 0.0
24 20:35 Calm 10.00 Fair CLR 73.4 53.6 50% 30.27 0.0
24 20:15 Calm 10.00 Fair CLR 78.8 51.8 39% 79 30.26 0.0
24 19:55 S 6 10.00 Fair CLR 78.8 53.6 42% 79 30.26 0.0
24 19:35 SW 5 10.00 Fair CLR 82.4 51.8 35% 81 30.26 0.0
24 19:15 S 5 10.00 Fair CLR 82.4 50 32% 81 30.26 0.0
24 18:55 E 6 10.00 Fair CLR 82.4 53.6 37% 81 30.26 0.0
24 18:35 Vrbl 3 10.00 Fair CLR 82.4 51.8 35% 81 30.27 0.0
24 18:15 SE 9 10.00 A Few Clouds FEW090 82.4 51.8 35% 81 30.27 0.0
24 17:55 Vrbl 7 10.00 Partly Cloudy SCT090 78.8 51.8 39% 79 30.27 0.0
24 17:35 E 10 G 23 10.00 Partly Cloudy SCT090 80.6 50 34% 80 30.28 0.0
24 17:15 E 21 G 31 10.00 A Few Clouds and Breezy FEW090 80.6 50 34% 80 30.25 0.0
24 16:55 SE 9 G 23 10.00 A Few Clouds FEW095 82.4 51.8 35% 81 30.26 0.0
24 16:35 SE 21 G 30 10.00 Thunderstorm in Vicinity and Breezy FEW090 87.8 51.8 29% 85 30.25 0.0
24 16:15 W 16 G 23 10.00 Fair CLR 91.4 50 24% 88 30.23 0.0
24 15:55 W 18 G 24 10.00 Fair CLR 93.2 50 23% 90 30.23 0.0
24 15:35 W 12 G 23 10.00 Thunderstorm in Vicinity FEW095 95 50 22% 92 30.23 0.0
24 15:15 W 17 G 29 10.00 Thunderstorm in Vicinity FEW095 96.8 50 20% 94 30.22 0.0
24 14:50 W 16 G 29 10.00 Fair CLR 95 51.8 23% 92 30.23 0.0
24 14:35 NW 15 G 26 10.00 Fair CLR 95 50 22% 92 30.23 0.0
24 14:15 W 17 10.00 Fair CLR 95 48.2 20% 92 30.23 0.0
24 13:55 W 17 10.00 Fair CLR 95 48.2 20% 92 30.23 0.0
24 13:35 W 13 G 21 10.00 Fair CLR 95 50 22% 92 30.24 0.0
24 13:15 W 16 G 23 10.00 Fair CLR 95 50 22% 92 30.24 0.0
24 12:55 NW 14 G 22 10.00 Fair CLR 95 50 22% 92 30.25 0.0
24 12:35 Calm 10.00 Fair CLR 91.4 50 24% 88 30.25 0.0
24 12:15 W 7 10.00 Fair CLR 91.4 48.2 23% 88 30.25 0.0
24 11:55 Vrbl 5 G 12 10.00 Fair CLR 93.2 48.2 21% 90 30.26 0.0
24 11:35 W 3 9.00 Fair CLR 91.4 48.2 23% 88 30.26 0.0
24 11:15 Calm 9.00 Fair CLR 89.6 51.8 27% 87 30.27 0.0
24 10:55 Calm 9.00 Fair CLR 87.8 53.6 31% 86 30.27 0.0
24 10:35 S 5 8.00 Fair CLR 86 51.8 31% 84 30.27 0.0
24 10:15 Calm 10.00 Fair CLR 84.2 51.8 33% 82 30.27 0.0
24 09:55 Calm 10.00 Fair CLR 82.4 51.8 35% 81 30.28 0.0
24 09:35 Calm 10.00 Fair CLR 80.6 51.8 37% 80 30.28 0.0
24 09:15 Calm 10.00 Fair CLR 80.6 51.8 37% 80 30.28 0.0
24 08:50 Calm 10.00 Fair CLR 77 50 39% 78 30.29 0.0
24 08:35 Calm 10.00 Fair CLR 75.2 51.8 44% 78 30.29 0.0
24 08:15 Calm 10.00 Fair CLR 73.4 50 44% 30.29 0.0
24 07:55 Calm 10.00 Fair CLR 71.6 51.8 50% 30.29 0.0
24 07:35 Calm 10.00 Fair CLR 68 51.8 56% 30.28 0.0
24 07:15 Calm 10.00 Fair CLR 64.4 51.8 64% 30.28 0.0
24 06:55 Calm 10.00 Fair CLR 60.8 51.8 72% 30.28 0.0
24 06:35 Calm 10.00 Fair CLR 59 50 72% 30.27 0.0
24 06:15 Calm 10.00 Fair CLR 59 48.2 68% 30.27 0.0
24 05:55 Calm 10.00 Fair CLR 57.2 48.2 72% 30.27 0.0
24 05:35 Calm 10.00 Fair CLR 55.4 50 82% 30.26 0.0
24 05:15 E 3 10.00 Fair CLR 59 50 72% 30.26 0.0
24 04:55 E 5 10.00 Partly Cloudy FEW034 FEW043 SCT050 59 50 72% 30.25 0.0
24 04:35 SE 6 10.00 A Few Clouds FEW049 FEW060 57.2 51.8 82% 30.25 0.0
24 04:15 Calm 10.00 A Few Clouds FEW045 FEW055 57.2 50 77% 30.24 0.0
24 03:55 Calm 10.00 A Few Clouds FEW033 FEW046 FEW055 59 50 72% 30.24 0.0
24 03:35 S 3 10.00 A Few Clouds FEW050 60.8 51.8 72% 30.24 0.0
24 03:15 Calm 10.00 A Few Clouds FEW041 FEW050 FEW065 60.8 51.8 72% 30.23 0.0
24 02:55 SE 3 10.00 Fair CLR 62.6 51.8 68% 30.23 0.0
24 02:30 Calm 10.00 A Few Clouds FEW045 FEW055 62.6 51.8 68% 30.24 0.0
24 02:10 SE 3 10.00 A Few Clouds FEW050 62.6 51.8 68% 30.24 0.0
24 01:55 SE 5 10.00 Fair CLR 62.6 51.8 68% 30.24 0.0
24 01:35 SE 5 10.00 Fair CLR 62.6 53.6 73% 30.24 0.0
24 01:15 Calm 10.00 Fair CLR 64.4 51.8 64% 30.24 0.0
24 00:50 Calm 10.00 Fair CLR 66.2 50 56% 30.24 0.0
24 00:35 Calm 10.00 Fair CLR 68 50 53% 30.24 0.0
24 00:15 SE 5 10.00 Fair CLR 66.2 51.8 60% 30.25 0.0
23 23:55 E 6 10.00 Fair CLR 68 51.8 56% 30.25 0.0
23 23:35 E 3 10.00 Fair CLR 68 51.8 56% 30.25 0.0
23 23:15 SE 6 10.00 Fair CLR 66.2 53.6 64% 30.26 0.0
23 22:55 SE 3 10.00 Fair CLR 68 51.8 56% 30.25 0.0
23 22:35 Calm 10.00 Fair CLR 69.8 51.8 53% 30.26 0.0
23 22:15 Calm 10.00 Fair CLR 71.6 51.8 50% 30.26 0.0
23 21:55 Calm 10.00 Fair CLR 75.2 51.8 44% 78 30.26 0.0
23 21:35 SE 7 10.00 Fair CLR 73.4 51.8 47% 30.26 0.0
23 21:15 S 10 10.00 Fair CLR 75.2 51.8 44% 78 30.26 0.0
23 20:55 S 13 G 23 10.00 A Few Clouds FEW100 77 51.8 42% 78 30.26 0.0
23 20:35 S 20 G 26 10.00 Mostly Cloudy BKN100 BKN120 77 51.8 42% 78 30.25 0.0
23 20:10 SE 22 G 29 10.00 Overcast and Breezy OVC110 78.8 51.8 39% 79 30.24 0.0
23 19:55 S 22 G 28 10.00 Mostly Cloudy and Breezy BKN110 78.8 51.8 39% 79 30.23 0.0
23 19:35 S 18 10.00 A Few Clouds FEW110 80.6 51.8 37% 80 30.23 0.0
23 19:15 S 15 10.00 Fair CLR 82.4 51.8 35% 81 30.22 0.0
23 18:55 SW 18 G 25 10.00 Fair CLR 82.4 53.6 37% 81 30.21 0.0
23 18:35 S 22 10.00 Thunderstorm in Vicinity and Breezy CLR 84.2 53.6 35% 83 30.2 0.0
23 18:15 SE 25 G 33 10.00 Fair and Breezy CLR 84.2 50 31% 82 30.17 0.0
23 17:55 SE 21 9.00 Fair and Breezy CLR 89.6 48.2 24% 86 30.15 0.0
23 17:35 E 17 G 25 10.00 NULL NULL 91.4 48.2 23% 88 30.14 0.0
23 16:15 W 13 G 20 10.00 Fair CLR 96.8 46.4 18% 93 30.12 0.0
23 15:55 NW 15 10.00 Fair CLR 98.6 46.4 17% 95 30.12 0.0
23 15:35 W 15 G 24 10.00 Fair CLR 98.6 44.6 16% 95 30.12 0.0
23 15:15 NW 9 G 22 10.00 Fair CLR 96.8 46.4 18% 93 30.13 0.0
23 14:55 NW 15 10.00 Fair CLR 98.6 48.2 18% 95 30.13 0.0
23 14:35 W 12 G 18 10.00 Fair CLR 98.6 46.4 17% 95 30.13 0.0
23 14:10 W 10 10.00 Fair CLR 96.8 48.2 19% 93 30.14 0.0
23 13:55 NW 8 10.00 Fair CLR 96.8 46.4 18% 93 30.14 0.0
23 13:35 Calm 10.00 Fair CLR 95 48.2 20% 92 30.15 0.0
23 13:15 N 7 10.00 Fair CLR 95 48.2 20% 92 30.15 0.0
23 12:55 Calm 10.00 Fair CLR 95 48.2 20% 92 30.15 0.0
23 12:35 W 7 10.00 Fair CLR 95 48.2 20% 92 30.16 0.0
23 12:15 Calm 10.00 Fair CLR 93.2 48.2 21% 90 30.16 0.0
23 11:55 Vrbl 3 10.00 Fair CLR 93.2 46.4 20% 90 30.16 0.0
23 11:35 Calm 10.00 Fair CLR 93.2 48.2 21% 90 30.16 0.0
23 11:15 E 6 10.00 Fair CLR 91.4 46.4 21% 88 30.16 0.0
23 10:55 N 3 1.50 Light Rain Haze CLR 91.4 48.2 23% 88 30.17 0.0
23 10:35 N 6 10.00 Fair CLR 87.8 51.8 29% 85 30.17 0.0
23 10:15 NW 6 9.00 Fair CLR 86 53.6 33% 84 30.17 0.0
23 09:55 NW 5 10.00 Fair CLR 84.2 51.8 33% 82 30.17 0.0
23 09:35 NW 5 10.00 Fair CLR 84.2 51.8 33% 82 30.18 0.0
23 09:15 Calm 10.00 Fair CLR 82.4 51.8 35% 81 30.18 0.0
23 08:55 Calm 10.00 Fair CLR 78.8 51.8 39% 79 30.18 0.0
23 08:35 Calm 10.00 Fair CLR 77 50 39% 78 30.18 0.0
23 08:15 Calm 10.00 Fair CLR 75.2 51.8 44% 78 30.18 0.0
23 07:55 Calm 10.00 Fair CLR 71.6 53.6 53% 30.18 0.0
23 07:35 Calm 10.00 Fair CLR 68 53.6 60% 30.18 0.0
23 07:15 SW 3 10.00 Fair CLR 68 50 53% 30.18 0.0
23 06:55 Calm 10.00 Fair CLR 64.4 51.8 64% 30.18 0.0
23 06:35 SE 5 10.00 Fair CLR 60.8 51.8 72% 30.18 0.0
23 06:05 E 6 10.00 Fair CLR 59 50 72% 30.17 0.0
23 05:55 E 3 10.00 Fair CLR 57.2 50 77% 30.17 0.0
23 05:35 E 5 10.00 Fair CLR 59 51.8 77% 30.17 0.0
23 05:15 Calm 10.00 Fair CLR 59 51.8 77% 30.16 0.0
23 04:55 Calm 10.00 Fair CLR 60.8 50 68% 30.16 0.0
23 04:35 Calm 10.00 Fair CLR 62.6 51.8 68% 30.16 0.0
23 04:15 Calm 10.00 Fair CLR 62.6 51.8 68% 30.16 0.0
23 03:55 Calm 10.00 Fair CLR 66.2 50 56% 30.15 0.0
23 03:35 E 9 10.00 Fair CLR 64.4 51.8 64% 30.15 0.0
23 03:15 SE 8 10.00 Fair CLR 62.6 51.8 68% 30.15 0.0
23 02:55 S 5 G 12 10.00 Fair CLR 64.4 51.8 64% 30.15 0.0
23 02:30 SW 7 10.00 Fair CLR 66.2 51.8 60% 30.14 0.0
23 02:15 Vrbl 6 10.00 A Few Clouds FEW050 66.2 51.8 60% 30.15 0.0
23 01:55 NE 10 10.00 A Few Clouds FEW050 68 50 53% 30.15 0.0
23 01:35 NE 12 10.00 Fair CLR 66.2 51.8 60% 30.15 0.0
23 01:15 SW 5 10.00 Fair CLR 69.8 51.8 53% 30.14 0.0
23 00:55 SW 7 10.00 Fair CLR 68 51.8 56% 30.14 0.0
23 00:35 SE 8 10.00 Fair CLR 68 50 53% 30.13 0.0
23 00:15 SE 12 10.00 Fair CLR 68 50 53% 30.13 0.0
22 23:55 SE 7 10.00 A Few Clouds FEW055 66.2 50 56% 30.13 0.0
22 23:35 Calm 10.00 Fair CLR 68 50 53% 30.12 0.0
22 23:15 Calm 10.00 Fair CLR 71.6 51.8 50% 30.12 0.0
22 22:55 Calm 10.00 Fair CLR 69.8 53.6 57% 30.12 0.0
22 22:35 NE 6 10.00 Fair CLR 73.4 50 44% 30.12 0.0
22 22:15 SE 6 10.00 Fair CLR 71.6 51.8 50% 30.12 0.0
22 21:55 Vrbl 5 10.00 Fair CLR 75.2 51.8 44% 78 30.12 0.0
22 21:35 W 3 10.00 Fair CLR 77 50 39% 78 30.11 0.0
22 21:15 SE 6 10.00 Fair CLR 77 51.8 42% 78 30.1 0.0
22 20:55 SE 8 10.00 A Few Clouds FEW100 77 53.6 44% 78 30.09 0.0
22 20:35 E 5 10.00 A Few Clouds FEW100 84.2 50 31% 82 30.08 0.0
22 20:15 Vrbl 5 10.00 Fair CLR 86 48.2 27% 83 30.07 0.0
22 19:55 W 7 10.00 Fair CLR 87.8 48.2 25% 85 30.07 0.0
22 19:35 W 3 G 12 10.00 Fair CLR 89.6 48.2 24% 86 30.07 0.0
22 19:15 W 8 10.00 Fair CLR 91.4 48.2 23% 88 30.06 0.0
22 18:55 W 10 10.00 Fair CLR 93.2 48.2 21% 90 30.06 0.0
22 18:35 W 9 G 16 10.00 Fair CLR 93.2 48.2 21% 90 30.05 0.0
22 18:15 W 13 10.00 Fair CLR 95 48.2 20% 92 30.05 0.0
22 17:55 W 13 G 20 10.00 Thunderstorm in Vicinity CLR 95 48.2 20% 92 30.05 0.0
22 17:35 W 14 G 21 10.00 Thunderstorm in Vicinity CLR 95 48.2 20% 92 30.04 0.0
22 17:15 NW 14 G 20 10.00 Fair CLR 95 50 22% 92 30.04 0.0
22 16:55 W 13 10.00 Fair CLR 96.8 50 20% 94 30.05 0.0
22 16:35 W 12 G 18 10.00 Thunderstorm in Vicinity FEW100 93.2 50 23% 90 30.05 0.0
22 16:15 NW 14 G 21 10.00 Thunderstorm in Vicinity CLR 95 50 22% 92 30.04 0.0
22 15:55 NW 17 G 29 10.00 A Few Clouds FEW110 96.8 50 20% 94 30.04 0.0
22 15:30 W 14 G 20 10.00 Mostly Cloudy BKN100 95 50 22% 92 30.05 0.0
22 15:15 W 13 G 22 10.00 A Few Clouds FEW110 95 48.2 20% 92 30.05 0.0
22 14:55 Vrbl 5 G 13 10.00 A Few Clouds FEW110 96.8 46.4 18% 93 30.05 0.0
22 14:35 Vrbl 6 10.00 Fair CLR 96.8 46.4 18% 93 30.05 0.0
22 14:15 W 7 G 13 8.00 Fair CLR 96.8 44.6 17% 93 30.06 0.0
22 13:50 Vrbl 5 9.00 Fair CLR 95 42.8 16% 91 30.07 0.0
22 13:35 W 6 G 15 10.00 Fair CLR 93.2 48.2 21% 90 30.08 0.0
22 13:15 SW 10 10.00 Fair CLR 91.4 46.4 21% 88 30.09 0.0
22 12:55 NW 7 10.00 Fair CLR 95 48.2 20% 92 30.08 0.0
22 12:35 NW 7 10.00 Fair CLR 93.2 48.2 21% 90 30.09 0.0
22 12:15 Calm 8.00 Fair CLR 91.4 48.2 23% 88 30.09 0.0
22 11:55 Vrbl 5 10.00 Fair CLR 89.6 48.2 24% 86 30.1 0.0
22 11:35 Vrbl 6 10.00 Fair CLR 89.6 50 26% 87 30.11 0.0
22 11:15 NW 5 10.00 Fair CLR 87.8 48.2 25% 85 30.11 0.0
Date Time (pdt) Wind (mph) Vis. (mi.) Weather Sky Cond. Air Dwpt Max. Min. Relative Humidity Wind Chill (°F) Heat Index (°F) altimeter (in) sea level (mb) 1 hr 3 hr 6 hr
6 hour
Temperature (ºF) Pressure Precipitation (in)